Santa Barbara, CA

5:36 AM PST on January 18, 2017 (GMT -0800)
Santa Barbara Municipal

Weather History for KSBA - October, 2011

Change the Weather History Date:

Saturday, October 1, 2011

  Actual Average Record
Temperature  
Mean Temperature 66 °F 64 °F  
Max Temperature 78 °F 73 °F 93 °F (2015)
Min Temperature 53 °F 54 °F 42 °F (1950)
Degree Days  
Heating Degree Days 0 2  
Month to date heating degree days 0 2  
Since 1 July heating degree days 136 97  
Cooling Degree Days 1 1  
Month to date cooling degree days 1 1  
Year to date cooling degree days 86 172  
Growing Degree Days 15 (Base 50)    
Moisture  
Dew Point 56 °F    
Average Humidity 68    
Maximum Humidity 93    
Minimum Humidity 43    
Precipitation  
Precipitation 0.00 in 0.01 in 2.40 in (1976)
Month to date precipitation 0.00 0.01  
Year to date precipitation 14.56 12.47  
Since 1 July precipitation T  
Sea Level Pressure  
Sea Level Pressure 29.92 in    
Wind  
Wind Speed 3 mph (SE)    
Max Wind Speed 9 mph    
Max Gust Speed 16 mph    
Visibility 10 miles    
Events      
T = Trace of Precipitation, MM = Missing Value Source: NWS Daily Summary

Daily Weather History Graph

Daily Weather History Graph

Search for Another Location

Airport or City:

Trip Planner

Search our weather history database for the weather conditions in past years. The results will help you decide how hot, cold, wet, or windy it might be!

Date:

Astronomy

Oct. 01, 2011 Rise Set
Actual Time 6:53 AM PDT 6:43 PM PDT
Civil Twilight 6:28 AM PDT 7:08 PM PDT
Nautical Twilight 5:59 AM PDT 7:37 PM PDT
Astronomical Twilight 5:30 AM PDT 8:07 PM PDT
Moon 11:50 AM PDT (10/1) 10:00 PM PDT (10/1)
Length of Visible Light 12h 40m
Length of Day
11h 49m
Waxing Crescent, 25% of the Moon is Illuminated
Oct 1
Waxing Crescent
Oct 3
First Quarter
Oct 11
Full
Oct 19
Last Quarter
Oct 26
New

Hourly Weather History & Observations

Time (PDT) Temp. Dew Point Humidity Pressure Visibility Wind Dir Wind Speed Gust Speed Precip Events Conditions
12:53 AM 57.9 °F 54.0 °F 87% 29.94 in 10.0 mi Calm Calm - N/A   Clear
1:53 AM 55.4 °F 53.6 °F 94% 29.94 in 10.0 mi Calm Calm - N/A   Partly Cloudy
2:53 AM 55.4 °F 53.6 °F 94% 29.93 in 10.0 mi Calm Calm - N/A   Clear
3:53 AM 55.9 °F 53.1 °F 90% 29.92 in 10.0 mi Calm Calm - N/A   Clear
4:53 AM 55.9 °F 52.0 °F 87% 29.92 in 10.0 mi NE 3.5 mph - N/A   Clear
5:53 AM 55.9 °F 51.1 °F 84% 29.92 in 10.0 mi NE 5.8 mph - N/A   Clear
6:53 AM 55.0 °F 51.1 °F 86% 29.93 in 10.0 mi NE 5.8 mph - N/A   Clear
7:53 AM 60.1 °F 55.0 °F 83% 29.94 in 10.0 mi NE 3.5 mph - N/A   Clear
8:53 AM 64.9 °F 57.9 °F 78% 29.94 in 10.0 mi SSE 4.6 mph - N/A   Clear
9:53 AM 69.1 °F 57.0 °F 65% 29.95 in 10.0 mi Calm Calm - N/A   Clear
10:53 AM 73.0 °F 55.9 °F 55% 29.95 in 10.0 mi WSW 6.9 mph - N/A   Clear
11:53 AM 70.0 °F 57.0 °F 63% 29.96 in 10.0 mi South 5.8 mph - N/A   Clear
12:53 PM 73.0 °F 55.9 °F 55% 29.95 in 10.0 mi Variable 3.5 mph - N/A   Clear
1:53 PM 73.9 °F 55.0 °F 52% 29.93 in 10.0 mi SSE 5.8 mph - N/A   Clear
2:53 PM 75.9 °F 51.1 °F 42% 29.93 in 10.0 mi WSW 8.1 mph - N/A   Clear
3:53 PM 73.9 °F 57.9 °F 57% 29.92 in 10.0 mi SSW 4.6 mph - N/A   Clear
4:53 PM 71.1 °F 57.0 °F 61% 29.90 in 10.0 mi SSE 4.6 mph - N/A   Clear
5:53 PM 69.1 °F 57.0 °F 65% 29.89 in 10.0 mi SE 3.5 mph - N/A   Clear
6:53 PM 66.0 °F 59.0 °F 78% 29.89 in 9.0 mi Calm Calm - N/A   Clear
7:53 PM 64.0 °F 57.0 °F 78% 29.89 in 9.0 mi SE 4.6 mph - N/A   Clear
8:53 PM 64.0 °F 59.0 °F 84% 29.91 in 10.0 mi Calm Calm - N/A   Clear
9:53 PM 64.0 °F 59.0 °F 84% 29.92 in 10.0 mi Calm Calm - N/A   Clear
10:53 PM 63.0 °F 57.0 °F 81% 29.91 in 10.0 mi Calm Calm - N/A   Clear
11:53 PM 62.6 °F 59.0 °F 88% 29.92 in 7.0 mi Calm Calm - N/A   Clear